{"data":{"norad_id":61260,"epoch":"2026-05-24T13:54:31.518144Z","epoch_age_seconds":108588,"freshness":"FRESH","line1":"1 61260U 24175T   26144.57953146  .00000236  00000+0  20104-4 0  9992","line2":"2 61260  53.1594 201.4683 0001037  78.3133 281.7984 15.30192725 93077","mean_motion":15.30192725,"eccentricity":0.0001037,"inclination_deg":53.1594,"raan_deg":201.4683,"arg_perigee_deg":78.3133,"mean_anomaly_deg":281.7984,"bstar":2.0104e-5,"rev_number":9307,"period_min":94.105793111779,"perigee_km":474.52609648189,"apogee_km":475.94748620622,"semimajor_km":6853.3737913441,"source":"CELESTRAK","updated_at":"2026-05-25T13:38:19.367394Z"}}